CFG225 EDDN-EDLW

Flight info

Callsign CFG225
Flight time N/A
Altitude 22000
Route SULUS1C/10 SULUS L604 MASEK Z52 ARPEG Z850 ADEMI ADEMI2A
Aircraft A320/M-SDE3FGHIRWY/LB1

Departure

Time 2026-05-01 14:53
Airport Nuremberg Airport (EDDN)

Arrival

Time N/A
Airport Dortmund Airport (EDLW)
Time Latitude Longitude Altitude Speed Heading
2026-05-01 14:23 49.49529 11.07660 1028 ft 0 kts 188°
2026-05-01 14:36 49.49530 11.07660 1027 ft 0 kts 188°
2026-05-01 14:39 49.49533 11.07661 1025 ft 2 kts 188°
2026-05-01 14:39 49.49551 11.07666 1028 ft 3 kts 196°
2026-05-01 14:39 49.49570 11.07676 1029 ft 3 kts 210°
2026-05-01 14:39 49.49585 11.07694 1026 ft 3 kts 236°
2026-05-01 14:40 49.49592 11.07715 1029 ft 2 kts 275°
2026-05-01 14:40 49.49591 11.07720 1030 ft 3 kts 278°
2026-05-01 14:43 49.49591 11.07721 1030 ft 0 kts 278°
2026-05-01 14:44 49.49591 11.07719 1030 ft 1 kts 278°
2026-05-01 14:44 49.49621 11.07424 1029 ft 21 kts 279°
2026-05-01 14:44 49.49638 11.07249 1028 ft 12 kts 279°
2026-05-01 14:45 49.49701 11.07234 1028 ft 13 kts 358°
2026-05-01 14:45 49.49783 11.06735 1022 ft 28 kts 278°
2026-05-01 14:45 49.49805 11.06508 1023 ft 16 kts 278°
2026-05-01 14:46 49.49820 11.06356 1024 ft 13 kts 278°
2026-05-01 14:46 49.49859 11.06017 1032 ft 13 kts 298°
2026-05-01 14:46 49.49919 11.05961 1034 ft 9 kts 339°
2026-05-01 14:47 49.49951 11.05942 1034 ft 0 kts 339°
2026-05-01 14:51 49.49999 11.05934 1034 ft 13 kts 10°
2026-05-01 14:52 49.50043 11.06044 1033 ft 0 kts 97°
2026-05-01 14:52 49.49963 11.06848 1023 ft 102 kts 98°
2026-05-01 14:53 49.49825 11.08217 1038 ft 155 kts 101°
2026-05-01 14:53 49.49659 11.09873 1640 ft 158 kts 100°
2026-05-01 14:53 49.49499 11.11561 2362 ft 160 kts 99°
2026-05-01 14:53 49.49331 11.13270 2973 ft 169 kts 99°
2026-05-01 14:54 49.49150 11.15156 3378 ft 187 kts 98°
2026-05-01 14:54 49.49027 11.17239 3777 ft 206 kts 87°
2026-05-01 14:54 49.49499 11.19494 4003 ft 241 kts 62°
2026-05-01 14:54 49.50670 11.21510 4536 ft 265 kts 40°
2026-05-01 14:55 49.52172 11.23199 5430 ft 269 kts 39°
2026-05-01 14:55 49.53659 11.24984 6363 ft 273 kts 41°
2026-05-01 14:55 49.55241 11.26650 7269 ft 280 kts 26°
2026-05-01 14:55 49.57160 11.27321 8134 ft 289 kts
2026-05-01 14:56 49.59130 11.26661 9045 ft 296 kts 334°
2026-05-01 14:56 49.60832 11.24791 9816 ft 305 kts 322°
2026-05-01 14:56 49.62482 11.22723 10647 ft 310 kts 322°
2026-05-01 14:56 49.64224 11.20553 10943 ft 334 kts 322°
2026-05-01 14:57 49.66099 11.18237 11230 ft 355 kts 322°
2026-05-01 14:57 49.70045 11.13396 12602 ft 367 kts 323°
2026-05-01 14:57 49.72055 11.10933 13354 ft 371 kts 323°
2026-05-01 14:58 49.74087 11.08442 14107 ft 375 kts 323°
2026-05-01 14:58 49.76138 11.05927 14769 ft 378 kts 323°
2026-05-01 14:58 49.78205 11.03387 15434 ft 381 kts 323°
2026-05-01 14:58 49.80294 11.00819 16094 ft 385 kts 323°
2026-05-01 14:59 49.82393 10.98236 16757 ft 388 kts 323°
2026-05-01 14:59 49.84515 10.95621 17405 ft 391 kts 323°
2026-05-01 14:59 49.86656 10.92985 18034 ft 395 kts 323°
2026-05-01 14:59 49.88819 10.90321 18623 ft 399 kts 323°
2026-05-01 15:00 49.93176 10.84946 19746 ft 406 kts 323°
2026-05-01 15:00 49.95386 10.82203 20333 ft 408 kts 323°
2026-05-01 15:00 49.97608 10.79442 20924 ft 411 kts 323°
2026-05-01 15:01 49.99845 10.76664 21490 ft 413 kts 323°
2026-05-01 15:01 50.02097 10.73865 22041 ft 416 kts 323°
2026-05-01 15:01 50.04359 10.71051 22300 ft 417 kts 323°
2026-05-01 15:01 50.06652 10.68197 22354 ft 427 kts 323°
2026-05-01 15:02 50.08987 10.65281 22352 ft 432 kts 323°
2026-05-01 15:02 50.09779 10.64290 22352 ft 432 kts 323°
2026-05-01 15:02 50.13673 10.59410 22353 ft 433 kts 323°
2026-05-01 15:02 50.16025 10.56463 22351 ft 434 kts 322°
2026-05-01 15:03 50.18378 10.53507 22352 ft 435 kts 322°
2026-05-01 15:03 50.20732 10.50544 22353 ft 435 kts 322°
2026-05-01 15:03 50.23022 10.47463 22352 ft 436 kts 316°
2026-05-01 15:03 50.25136 10.44074 22353 ft 436 kts 315°
2026-05-01 15:04 50.27254 10.40667 22349 ft 436 kts 315°
2026-05-01 15:04 50.29369 10.37269 22348 ft 436 kts 315°
2026-05-01 15:04 50.31484 10.33866 22348 ft 436 kts 315°
2026-05-01 15:04 50.33596 10.30458 22348 ft 436 kts 315°
2026-05-01 15:05 50.35691 10.27028 22347 ft 436 kts 314°
2026-05-01 15:05 50.37701 10.23472 22342 ft 436 kts 312°
2026-05-01 15:05 50.39705 10.19898 22335 ft 436 kts 313°
2026-05-01 15:05 50.41757 10.16383 22330 ft 437 kts 314°
2026-05-01 15:06 50.43849 10.12932 22328 ft 437 kts 315°
2026-05-01 15:06 50.45949 10.09480 22332 ft 437 kts 314°
2026-05-01 15:06 50.48030 10.06013 22331 ft 437 kts 314°
2026-05-01 15:06 50.50102 10.02514 22327 ft 437 kts 314°
2026-05-01 15:07 50.52161 9.98994 22331 ft 437 kts 313°
2026-05-01 15:07 50.54210 9.95461 22336 ft 437 kts 313°
2026-05-01 15:07 50.56210 9.91870 22339 ft 437 kts 311°
2026-05-01 15:07 50.58160 9.88207 22329 ft 437 kts 310°
2026-05-01 15:08 50.60081 9.84498 22322 ft 437 kts 310°
2026-05-01 15:08 50.61996 9.80770 22321 ft 437 kts 309°
2026-05-01 15:08 50.63911 9.77050 22320 ft 437 kts 310°
2026-05-01 15:08 50.65838 9.73337 22312 ft 438 kts 310°
2026-05-01 15:09 50.67775 9.69629 22314 ft 438 kts 310°
2026-05-01 15:09 50.69720 9.65923 22316 ft 438 kts 310°
2026-05-01 15:09 50.70962 9.63411 22322 ft 438 kts 305°
2026-05-01 15:09 50.72503 9.59262 22321 ft 439 kts 295°
2026-05-01 15:10 50.73584 9.54766 22317 ft 439 kts 285°
2026-05-01 15:10 50.74885 9.45357 22315 ft 439 kts 282°
2026-05-01 15:10 50.75520 9.40633 22319 ft 439 kts 282°
2026-05-01 15:11 50.76159 9.35922 22313 ft 439 kts 282°
2026-05-01 15:11 50.77447 9.26501 22315 ft 439 kts 282°
2026-05-01 15:11 50.78090 9.21790 22313 ft 439 kts 282°
2026-05-01 15:12 50.78728 9.17072 22309 ft 439 kts 282°
2026-05-01 15:12 50.79981 9.07659 22308 ft 430 kts 281°
2026-05-01 15:12 50.80585 9.03088 21399 ft 422 kts 281°
2026-05-01 15:13 50.82442 8.89606 19991 ft 401 kts 287°
2026-05-01 15:14 50.84671 8.82028 19634 ft 359 kts 297°
2026-05-01 15:14 50.85826 8.78579 19071 ft 351 kts 297°
2026-05-01 15:14 50.88067 8.71851 17713 ft 342 kts 297°
2026-05-01 15:15 50.90249 8.65260 16497 ft 331 kts 297°
2026-05-01 15:15 50.92329 8.58975 15625 ft 318 kts 297°
2026-05-01 15:16 50.94402 8.52693 14719 ft 325 kts 297°
2026-05-01 15:16 50.96521 8.46289 13816 ft 330 kts 296°
2026-05-01 15:17 50.98623 8.39904 13187 ft 323 kts 296°
2026-05-01 15:18 51.02125 8.30870 11866 ft 326 kts 312°
2026-05-01 15:18 51.03716 8.28245 10971 ft 343 kts 313°
2026-05-01 15:19 51.08789 8.20208 10301 ft 322 kts 314°
2026-05-01 15:19 51.11862 8.15381 10305 ft 309 kts 314°
2026-05-01 15:19 51.13412 8.12943 10300 ft 309 kts 314°
2026-05-01 15:20 51.16468 8.08154 10307 ft 311 kts 314°
2026-05-01 15:20 51.17932 8.05643 10302 ft 307 kts 303°
2026-05-01 15:20 51.19079 8.02816 10043 ft 302 kts 299°
2026-05-01 15:21 51.20163 7.99953 9651 ft 301 kts 298°
2026-05-01 15:21 51.21236 7.97102 9280 ft 299 kts 298°
2026-05-01 15:21 51.22301 7.94276 8921 ft 297 kts 299°
2026-05-01 15:21 51.23360 7.91467 8540 ft 294 kts 298°
2026-05-01 15:22 51.25460 7.85904 7801 ft 291 kts 298°
2026-05-01 15:22 51.26496 7.83160 7472 ft 287 kts 298°
2026-05-01 15:22 51.27535 7.80424 7052 ft 289 kts 298°
2026-05-01 15:23 51.28586 7.77697 6690 ft 288 kts 298°
2026-05-01 15:23 51.29634 7.74980 6335 ft 286 kts 298°
2026-05-01 15:23 51.30680 7.72300 5959 ft 284 kts 298°
2026-05-01 15:23 51.31727 7.69631 5611 ft 282 kts 298°
2026-05-01 15:24 51.32766 7.66989 5224 ft 280 kts 298°
2026-05-01 15:24 51.33819 7.64317 4769 ft 281 kts 299°
2026-05-01 15:24 51.34819 7.61713 4431 ft 277 kts 300°
2026-05-01 15:24 51.35803 7.59069 4064 ft 276 kts 298°
2026-05-01 15:25 51.36776 7.56432 3662 ft 275 kts 298°
2026-05-01 15:25 51.37745 7.53795 3274 ft 274 kts 298°
2026-05-01 15:25 51.38711 7.51171 2899 ft 273 kts 298°
2026-05-01 15:25 51.39673 7.48575 2580 ft 271 kts 298°
2026-05-01 15:26 51.40637 7.45998 2512 ft 266 kts 298°
2026-05-01 15:26 51.41709 7.43702 2502 ft 249 kts 321°
2026-05-01 15:26 51.43239 7.42548 2513 ft 244 kts 353°
2026-05-01 15:26 51.44890 7.42819 2514 ft 240 kts 27°
2026-05-01 15:27 51.46135 7.44452 2507 ft 229 kts 65°
2026-05-01 15:27 51.46808 7.46766 2332 ft 231 kts 70°
2026-05-01 15:27 51.47571 7.49156 2046 ft 246 kts 64°
2026-05-01 15:28 51.49256 7.53895 2205 ft 254 kts 62°
2026-05-01 15:28 51.50164 7.56472 3036 ft 269 kts 63°
2026-05-01 15:28 51.51066 7.59044 2886 ft 260 kts 64°
2026-05-01 15:29 51.52787 7.63999 2391 ft 249 kts 64°
2026-05-01 15:29 51.53612 7.66399 2130 ft 243 kts 63°
2026-05-01 15:29 51.55200 7.70883 2518 ft 228 kts 65°
2026-05-01 15:30 51.56788 7.75310 2934 ft 230 kts 64°
2026-05-01 15:31 51.60017 7.84259 3007 ft 232 kts 64°
2026-05-01 15:31 51.62382 7.87604 3013 ft 242 kts 12°
2026-05-01 15:32 51.65422 7.85881 3011 ft 242 kts 306°
2026-05-01 15:32 51.65892 7.80882 3017 ft 231 kts 248°
2026-05-01 15:33 51.64109 7.73658 3021 ft 231 kts 244°
2026-05-01 15:34 51.62009 7.66694 3005 ft 231 kts 239°